Powrót do katalogu

DSN-2

AktywnyMilitariaGEO
NORAD 41940·PAYLOAD·🇯🇵 Japan

Wystrzelony Jan 24, 2017 z Tanegashima Space Center

Loading…

TLE

ŚwieżeSource: Mike McCants

Epoka: Sep 15, 2026, 10:42 UTC

1 41940U 17005A   26258.44588886  .00000000  00000-0  00000-0 0    08
2 41940   0.0250 247.8967 0003453 131.2919 228.7549  1.00270000 21911

Śledź DSN-2 w czasie rzeczywistym z AllMySat

Download on the App Store